Preview of NWS' New Version of Forecast
This preview is not operational and should not be used for support decisions.

Regional Weather Roundup (RWR)

Issued by National Weather Service (NWS)

                            
000
ASUS44 KMEG 250410
RWRTN 
TENNESSEE HOURLY STATE WEATHER ROUNDUP
NATIONAL WEATHER SERVICE MEMPHIS TN
1100 PM CDT MON JUN 24 2019

TNZ002-004-019-021-049-052-054-088>092-250500-
WEST TENNESSEE
  
CITY           SKY/WX    TMP DP  RH WIND       PRES   REMARKS
MEMPHIS INTL   FAIR      75  71  87 S6        29.95R                  
NWS MEMPHIS      N/A     73 N/A N/A MISG        N/A                   
JACKSON        FAIR      72  69  90 SW7       29.94S                  
DYERSBURG      FAIR      74  69  85 SW3       29.93S                  
$$

TNZ008-025-027-028-033-062-065-066-250500-
NORTH MIDDLE TENNESSEE
  
CITY           SKY/WX    TMP DP  RH WIND       PRES   REMARKS
NASHVILLE      FAIR      75  65  70 SW3       29.93R                  
CLARKSVILLE    FAIR      72  66  81 SW5       29.91R                  
SMYRNA         FAIR      73  68  84 CALM      29.94R                  
CROSSVILLE     FAIR      66  64  93 SW3       30.01R                  
$$

TNZ061-075-076-078-094-096-097-250500-
SOUTH MIDDLE TENNESSEE
  
CITY           SKY/WX    TMP DP  RH WIND       PRES   REMARKS
$$

TNZ017-018-042-046-047-250500-
NORTHEAST TENNESSEE
  
CITY           SKY/WX    TMP DP  RH WIND       PRES   REMARKS
TRI CITIES     MOCLDY    68  66  93 SW6       29.98R                  
$$

TNZ012-013-036-069-073-074-250500-
CENTRAL EAST TENNESSEE
  
CITY           SKY/WX    TMP DP  RH WIND       PRES   REMARKS
KNOXVILLE      MOCLDY    69  66  90 CALM      29.95R                  
OAK RIDGE      CLOUDY    70  68  93 CALM      29.97R FOG              
$$

TNZ083-085-099-250500-
SOUTHEAST TENNESSEE
  
CITY           SKY/WX    TMP DP  RH WIND       PRES   REMARKS
CHATTANOOGA    MOCLDY    74  70  87 CALM      29.96R                  
$$

SKY/WX REPORTED AS FAIR MEANS FEW OR NO CLOUDS BELOW
12 THOUSAND FEET.